User: anonymous   Login
Location: Caltech
(34.1382°N, 118.1253°W)
Time: 00:56:37
(UTC-07:00)
Language:

Spot 4 Rocket - Orbit

View from above orbital plane
View from above orbital plane
View from above satellite
View from above satellite

Ground track
Ground track

The orbit data is extracted from the following two-line orbital elements,

1 25261U 98017B   16237.84307033  .00000089  00000-0  47956-4 0  9990
2 25261  98.5056 183.4261 0002104 241.9654 118.1318 14.33501090962550
Epoch (UTC): 24 August 2016 20:14:01
Eccentricity: 0.0002104
inclination: 98.5056°
perigee height: 778 km
apogee height: 781 km
right ascension of ascending node: 183.4261°
argument of perigee: 241.9654°
revolutions per day: 14.33501090
mean anomaly at epoch: 118.1318°
orbit number at epoch: 96255

The dashed part of the orbit path shows where the satellite is in the earth's shadow,  

DLR